サイディング・スプリング彗星

162P/Siding Spring (2026)

English version
Home page
Updated on May 13, 2024

---------------------------------------------------------------------

・ プロフィール

・ 軌道要素

Epoch 2024 Mar. 31.0 TT = JDT 2460400.5
T 2026 May 17.60291 TT                                  Rudenko
q   1.2890517            (2000.0)            P               Q
n   0.18126307     Peri.  357.21542     +0.87927291     -0.41285951
a   3.0921685      Node    30.88742     +0.44546846     +0.53621017
e   0.5831237      Incl.   27.56318     +0.16863274     +0.73622393
P   5.44
>From 3229 observations 1990 Mar. 23-2024 Mar. 17, mean residual 0".4.

・ 星図

・ 光度変化

        H = 13.7  G = 0.15

---------------------------------------------------------------------

軌道要素はM.P.E.C. 2024-F34に掲載されたものです。
星図はステラナビゲータ Ver.11 (アストロアーツ) で作成したものです。
光度グラフはComet for Windowsで作成したものです。

---------------------------------------------------------------------

Copyright(C) Seiichi Yoshida (comet@aerith.net). All rights reserved.